Terminal Aerodrome Forecast
Issued by NWS

Home | Current Version | Previous Version | Text Only | Print | Product List | Glossary On
Versions: 1 2 3 4 5 6 7 8 9 10 11 12 13 14 15 16 17 18 19 20 21 22 23 24 25 26 27 28 29 30 31 32 33 34 35 36 37 38 39 40 41 42 43 44 45 46 47
000
FTUS46 KEKA 300112 AAA
TAFACV
TAF AMD
KACV 300112Z 3001/3024 32007KT P6SM SCT009 BKN015
     FM300500 36003KT 5SM BR BKN009 OVC015
     FM301700 33007KT P6SM SCT009=

USA.gov is the U.S. government's official web portal to all federal, state and local government web resources and services.